Regional Weather Roundup
Issued by NWS Charleston, SC

Current Version | Previous Version | Text Only | Print | Product List | Glossary On
Versions: 1 2 3 4 5 6 7 8 9 10 11 12 13 14 15 16 17 18 19 20 21 22 23 24 25 26 27 28 29 30 31 32 33 34 35 36 37 38 39 40 41 42 43 44 45 46 47 48 49 50
000
ASUS42 KCHS 300713
RWRCHS

REGIONAL WEATHER ROUNDUP
NATIONAL WEATHER SERVICE CHARLESTON SC
300 AM EDT FRI SEP 30 2016

NOTE: "FAIR" INDICATES FEW OR NO CLOUDS BELOW 12,000 FEET WITH NO
SIGNIFICANT WEATHER AND/OR OBSTRUCTIONS TO VISIBILITY.

NOT ALL STATIONS ARE QUALITY CONTROLLED. USE DATA WITH CAUTION...
ESPECIALLY DEWPOINT OBSERVATIONS.

SCZ027-030-031-034>040-042>050-300800-
...SOUTHEAST SOUTH CAROLINA...

CITY           SKY/WX    TMP DP  RH WIND       PRES   REMARKS
N CHARLESTON   MOCLDY    72  69  90 SE3       29.94F
WATERFRONT PRK   N/A     74  72  93 VRB2      29.94F
MOUNT PLEASANT FAIR      72  70  94 CALM      29.94F FOG
JOHNS ISLAND   FAIR      72  72 100 CALM      29.94F
PINOPOLIS        N/A     73  70  88 SE6       29.86F
MONCKS CORNER  FAIR      70  66  88 S5        29.94F
SUMMERVILLE    PTSUNNY   70  70 100 CALM      29.95F
BEAUFORT MCAS  PTCLDY    73  69  87 SW6       29.94S
BEAUFORT ARPT  FAIR      72  70  94 CALM      29.93F
HILTON HEAD IS CLEAR     72  72 100 CALM      29.94F FOG
WALTERBORO     PTSUNNY   70  70 100 CALM      29.96S
ALLENDALE      FAIR      70  63  78 CALM      29.96R

...SOUTHERN MIDLANDS AND PEE DEE...

CITY           SKY/WX    TMP DP  RH WIND       PRES   REMARKS
GEORGETOWN     FAIR      75  73  94 S5        29.96F
KINGSTREE        N/A     72  72 100 E5        29.94F
ORANGEBURG     MOCLDY    69  68  96 CALM      29.96S
BARNWELL       NOT AVBL
AIKEN          FAIR      57  52  82 CALM      30.01S
MANNING        FAIR      72  70  94 W6        29.95S
COLUMBIA       CLEAR     67  57  70 W6        29.95S
SUMTER         CLOUDY    73  67  82 SW9       29.92F
FLORENCE       CLOUDY    72  70  93 SE6       29.95F
MYRTLE BEACH   MOCLDY    79  68  69 SW3       29.97F
N MYRTLE BEACH PTCLDY    80  75  84 SW12      29.96S

$$

GAZ063-065-086>088-099>101-113>116-118-119-134>141-150-300800-
...SOUTHEAST GEORGIA...

CITY           SKY/WX    TMP DP  RH WIND       PRES   REMARKS
SAVANNAH ARPT  MOCLDY    72  70  93 NW7       29.95S
HUNTER AAF     PTCLDY    75  75 100 W8        29.92S
FORT STEWART   PTCLDY    70  66  87 NW5       29.94S
STATESBORO     CLEAR     65  61  87 CALM      29.97S
SYLVANIA       NOT AVBL
CLAXTON        FAIR      64  64 100 SW3       29.97F

...CSRA...CENTRAL AND FAR SOUTHEAST GEORGIA...

CITY           SKY/WX    TMP DP  RH WIND       PRES   REMARKS
THOMSON        PTCLDY    62  55  79 CALM      30.03S
AUGUSTA-BUSH   PTCLDY    59  54  83 CALM      29.97S
AUGUSTA-DANIEL PTCLDY    68  47  46 NW5       29.98S
SWAINSBORO     PTSUNNY   61  55  82 NW3       29.99F
VIDALIA        PTCLDY    68  57  68 NW3       29.99S
EASTMAN        FAIR      60  48  63 CALM      30.02F
HAZLEHURST     FAIR      69  56  62 SE3       29.98S
ALMA           CLEAR     62  58  86 CALM      29.98S
WAYCROSS       CLEAR     69  64  82 CALM      29.98S
JESUP          FAIR      72  64  78 NW6       29.97F
BAXLEY         FAIR      64  63  94 CALM      29.98S
BRUNSWICK      MOCLDY    77  73  88 W8        29.97S
SAINT SIMONS   CLEAR     76  72  87 SW8       29.95F

$$

SCZ027-028-034-036>038-045-046-048>050-GAZ119-141-300800-
...LAKE AND SUPPLEMENTAL COASTAL OBSERVATIONS...

STATION/POSITION TIME  TEMP    WIND        PRES    WAVE   SWELL
                       AIR SEA DIR/SP/G            HT/PER HT/PER/DIR
                 (UTC) (F)     (DEG/KT/KT) (MB)    (FT/S) (FT/S/D)
WINYAH BAY       NOT AVBL
LAKE MURRAY      0620   71     280/  4/  7 1014.2S
ACE BASIN NERRS  0545   72        CALM     1014.0
FORT PULASKI     0648          220/  5/ 11 1014.3R
SAPELO ISLAND    0600   79     240/ 10     1014.0

$$

ANZ835-935-AMZ111-154-330-350-352-354-370-450-454-472-300800-
...C-MAN AND BUOY OBSERVATIONS...

STATION/POSITION TIME  TEMP    WIND        PRES    WAVE   SWELL
                       AIR SEA DIR/SP/G            HT/PER HT/PER/DIR
                 (UTC) (F)     (DEG/KT/KT) (MB)    (FT/S) (FT/S/D)
BUOY 41004       0650   82 82  200/ 14/ 16 1014.0F   4/ 5   2/100/10
BUOY 41008       0650   81 82  240/ 16/ 19 1013.6F   3/ 5   2/ 60/10
FOLLY BEACH CMAN 0600   74     240/  5/  6 1014.4F
CAPERS NEARSHORE 0608   76 81  290/ 14/ 21 1014.5F
FRIPP NEARSHORE  0608   77 81  290/ 16/ 21 1014.2F


STATION/POSITION TIME  TEMP    WIND        PRES    WAVE   SWELL
                       AIR SEA DIR/SP/G            HT/PER HT/PER/DIR
                 (UTC) (F)     (DEG/KT/KT) (MB)    (FT/S) (FT/S/D)
5E ST. MARYS GA  0601      82                N/A     2/11   2/100/11
FRYING PAN BUOY  0650   81 82  170/ 12/ 14 1015.0F   4/ 6   2/120/10
BUOY 41025       0650   80 76  190/ 10/ 12 1016.2F   4/ 9   3/ 60/ 9
CAPE LOOKOUT NC  0600   79     160/ 11/ 12 1016.0F
BUOY 41002       0650   80 83  220/  8/ 16 1017.2F   4/ 6   3/160/ 6
BUOY 41010       NOT AVBL
ST AUGUSTINE FL  0700   75 82  210/  6/  8 1016.1F


$$




USA.gov is the U.S. government's official web portal to all federal, state and local government web resources and services.